星链-11422 (STARLINK-11422)

导读

STARLINK-11422是美国太空探索技术公司(SpaceX)部署的星链低轨卫星,于2024年11月14日发射升空,归属当天8小时内两次星链发射任务之列,属于星链V2 Mini型号卫星。作为星链星座扩容的一员,该卫星加入了SpaceX近地轨道卫星组网,助力星链全球高速卫星互联网覆盖,尤其推动直连手机通信能力的星座建设,进一步扩大星链星座规模,截至此次发射后,星链累计发射卫星已超7300颗。

基本信息
目录编号:
61944
目录名称:
STARLINK-11422
国际标识:
2024-209F
轨道中心:
EARTH
卫星名称:
星链-11422
卫星全名:
星链-11422 (STARLINK-11422)
卫星状态:
在轨 (已飞行666 天)
发射日期:
2024-11-14 UTC
国别 :
美国 (US)
星等 :
--
该卫星已列入 空间交会检测服务 Space Conjunction Data Service (SCDS) ,当前飞行风险评估等级: 无高风险
轨道信息
数据来源 国际轨道数据
星历时间: 2026-09-11T11:37:34+0800
10小时前
查看轨道信息
半长轴: 6737.844km
偏心率: 0.0001189
轨道倾角: 53.158°
近地点辐角 93.064°
升交点赤经 177.231°
平近点角 267.052°
近地点: 358.905km
远地点: 360.509km
周期: 91.736分钟
每日圈数: 15.697172
详细信息
固有亮度:
5
最大亮度:
2.5
卫星平台:
Starlink V1.0
覆盖范围:
全球
运营商:
太空探索技术公司
运营商所在国:
美国
制造商(研发单位):
太空探索技术公司
制造商所在国:
美国
使用方式:
暂无
卫星简介
Starlink 计划是 SpaceX 推出的全球卫星互联网项目,通过发射低轨道卫星,为全球尤其是偏远地区提供高速、低延迟的互联网服务。自 2019 年起,Starlink 已部署数千颗卫星,旨在缩小全球数字鸿沟,推动互联网普及。该项目还为军事、航空等行业提供通信支持,带来广泛经济效益。
2D轨道图
3D轨道图
轨道高度分析图
轨道倾角分析图
轨道综合分析图
查看轨道综合分析图
交会数据列表
事件ID 空间交会对象 最接近时刻(TCA) 交会距离 交会风险概率(CRP) 交会风险指数(CRI) 操作
CDM_260911-205506-040906-194421
2026-09-11T
20:55:01+0000
1.276 km
极远距离
7.227063E-6 低风险 0.52
CDM_260903-193606-040906-194421
2026-09-03T
19:36:56+0000
1.781 km
极远距离
2.527519E-6 低风险 0.43
与全量物体交会距离演化趋势
与全量物体交会风险概率演化趋势